Miscellaneous Local Product
Issued by NWS Hastings, NE

Home | Current Version | Previous Version | Graphics & Text | Print | Product List | Glossary On
Versions: 1 2 3 4 5 6 7 8 9 10 11 12 13 14 15 16 17 18 19 20 21 22 23 24 25 26 27 28 29 30 31 32 33 34 35 36 37 38 39 40 41 42 43 44 45 46 47 48 49 50
311
AXUS43 KGID 291902
MISGRI

GID CWA HOURLY WEATHER ROUNDUP
NATIONAL WEATHER SERVICE HASTINGS NE
200 PM CDT FRI JUL 29 2016

NOTE: "FAIR" INDICATES FEW OR NO CLOUDS BELOW 12,000 FEET WITH NO
SIGNIFICANT WEATHER AND/OR OBSTRUCTIONS TO VISIBILITY.

...SOUTH CENTRAL NEBRASKA...

CITY           SKY/WX    TMP DP  RH WIND       PRES   REMARKS
GRAND ISLAND   CLOUDY    78  63  59 N6        30.09F
HASTINGS       CLOUDY    78  62  57 N7        30.09F
KEARNEY        CLOUDY    73  66  78 NE3       30.10F
ORD            CLOUDY    73  60  63 CALM      30.09F
YORK           MOSUNNY   75  64  69 N6        30.07F
AURORA         CLOUDY    72  67  85 NE9       30.08S
LEXINGTON      MOSUNNY   77  64  63 N5        30.10F
HOLDREGE       SUNNY     78  61  55 N3        30.09F
HEBRON         MOSUNNY   81  60  48 N6        30.05F

...NEBRASKA PANHANDLE...

CITY           SKY/WX    TMP DP  RH WIND       PRES   REMARKS
CHADRON        SUNNY     84  55  36 VRB3      30.07F
ALLIANCE       PTSUNNY   77  58  51 S9        30.12F
SCOTTSBLUFF    SUNNY     82  59  45 E13       30.11F
SIDNEY         PTSUNNY   80  57  45 S10G23    30.16F

...WESTERN AND NORTH CENTRAL NEBRASKA...

CITY           SKY/WX    TMP DP  RH WIND       PRES   REMARKS
VALENTINE      SUNNY     75  57  53 CALM      30.10F
AINSWORTH      MOSUNNY   73  62  68 CALM      30.12F
ONEILL         SUNNY     75  56  51 CALM      30.11F
BROKEN BOW     MOSUNNY   71  64  78 CALM      30.11F
IMPERIAL       PTSUNNY   76  60  57 MISG      30.13F
NORTH PLATTE   MOSUNNY   79  63  57 W3        30.11F
MCCOOK         CLOUDY    79  61  53 N3        30.10F

...EASTERN NEBRASKA...

CITY           SKY/WX    TMP DP  RH WIND       PRES   REMARKS
NORFOLK        PTSUNNY   77  55  46 MISG      30.07F
SO SIOUX CITY  PTSUNNY   80  58  46 N7        30.06S
TEKAMAH        PTSUNNY   78  59  51 N9        30.04F
COLUMBUS       PTSUNNY   75  59  57 NE6       30.07F
ALBION         MOSUNNY   76  58  53 NE7       30.08F
OMAHA EPPLEY   MOSUNNY   80  61  52 N8        30.03F
OFFUTT AFB     MOSUNNY   80  59  50 N8        30.03F
MILLARD        PTSUNNY   79  59  49 NW9       30.03F
LINCOLN        MOSUNNY   80  65  59 N9        30.06F
NEBRASKA CITY  PTSUNNY   76  62  62 N7        30.05F
BEATRICE       LGT RAIN  73  67  79 CALM      30.06S
FALLS CITY     PTSUNNY   80  64  58 N6        30.02F

...NORTHERN KANSAS...

CITY           SKY/WX    TMP DP  RH WIND       PRES   REMARKS
GOODLAND       CLOUDY    70  63  78 CALM      30.16S
HILL CITY      MOSUNNY   81  63  54 SE8       30.08F
NORTON         MOCLDY    81  54  39 NE3       30.08
SMITH CENTER   SUNNY     82  61  47 NW3       30.06F
BELOIT         MOSUNNY   82  66  57 NE3       30.04F
HAYS           MOSUNNY   82  61  47 E3        30.06F
RUSSELL        MOSUNNY   84  62  47 VRB3      30.04F
CONCORDIA      PTSUNNY   78  65  63 NE8       30.05F
SALINA         PTSUNNY   86  67  52 NE5       30.03F
TOPEKA         CLOUDY    81  64  56 NE3       30.01S



USA.gov is the U.S. government's official web portal to all federal, state and local government web resources and services.